When you browse on this site, cookies collect data to enhance your experience and personalize the content and advertising you see.
Visit our Privacy Policy to learn more. By continuing to use the site, you agree to this use of cookies and data.
  • In Deutschland
  • Länderverzeichnis
  • Für 7 Tage
  • Wassertemperatur
  • Satellitenkarten
  • Wetterkarte
  • Widgets
  • user-avatar
    Anmelden

    Stündliche Wetter Marsa Alam

    Heute, 20 Januar, Sonntag

    Zeit Temperatur Niederschläge Wind Luftdruck Luftfeuchtigkeit
    00:00 +13°C° 0 mm 1 m/S 717 mmHg 75%
    01:00 +13°C° 0 mm 1 m/S 717 mmHg 76%
    02:00 +12°C° 0 mm 1 m/S 717 mmHg 79%
    03:00 +12°C° 0 mm 1 m/S 717 mmHg 78%
    04:00 +11°C° 0 mm 0 m/S 717 mmHg 78%
    05:00 +10°C° 0 mm 0 m/S 717 mmHg 78%
    06:00 +12°C° 0 mm 0 m/S 717 mmHg 69%
    07:00 +13°C° 0 mm 0 m/S 717 mmHg 61%
    08:00 +15°C° 0 mm 0 m/S 718 mmHg 56%
    09:00 +19°C° 0 mm 1 m/S 718 mmHg 49%
    10:00 +20°C° 0 mm 1 m/S 718 mmHg 42%
    11:00 +22°C° 0 mm 1 m/S 718 mmHg 35%
    12:00 +23°C° 0 mm 1 m/S 718 mmHg 33%
    13:00 +23°C° 0 mm 1 m/S 717 mmHg 30%
    14:00 +23°C° 0 mm 2 m/S 717 mmHg 34%
    15:00 +21°C° 0 mm 2 m/S 717 mmHg 36%
    16:00 +21°C° 0 mm 2 m/S 717 mmHg 38%
    17:00 +21°C° 0 mm 1 m/S 717 mmHg 40%
    18:00 +20°C° 0 mm 1 m/S 717 mmHg 46%
    19:00 +19°C° 0 mm 1 m/S 717 mmHg 52%
    20:00 +18°C° 0 mm 1 m/S 717 mmHg 58%
    21:00 +16°C° 0 mm 1 m/S 717 mmHg 62%
    22:00 +15°C° 0 mm 0 m/S 717 mmHg 66%
    23:00 +14°C° 0 mm 0 m/S 717 mmHg 70%

    Morgen, 21 Januar, Montag

    Zeit Temperatur Niederschläge Wind Luftdruck Luftfeuchtigkeit
    00:00 +14°C° 0 mm 0 m/S 717 mmHg 72%
    01:00 +13°C° 0 mm 0 m/S 717 mmHg 73%
    02:00 +13°C° 0 mm 0 m/S 716 mmHg 75%
    03:00 +13°C° 0 mm 0 m/S 716 mmHg 76%
    04:00 +12°C° 0 mm 0 m/S 716 mmHg 77%
    05:00 +13°C° 0 mm 1 m/S 716 mmHg 78%
    06:00 +14°C° 0 mm 1 m/S 717 mmHg 70%
    07:00 +15°C° 0 mm 0 m/S 717 mmHg 63%
    08:00 +16°C° 0 mm 0 m/S 718 mmHg 56%
    09:00 +20°C° 0 mm 1 m/S 718 mmHg 48%
    10:00 +22°C° 0 mm 1 m/S 718 mmHg 40%
    11:00 +23°C° 0 mm 1 m/S 718 mmHg 33%
    12:00 +24°C° 0 mm 1 m/S 718 mmHg 30%
    13:00 +25°C° 0 mm 1 m/S 717 mmHg 28%
    14:00 +26°C° 0 mm 2 m/S 717 mmHg 25%
    15:00 +25°C° 0 mm 1 m/S 717 mmHg 28%
    16:00 +24°C° 0 mm 1 m/S 717 mmHg 31%
    17:00 +23°C° 0 mm 1 m/S 717 mmHg 34%
    18:00 +22°C° 0 mm 1 m/S 717 mmHg 40%
    19:00 +21°C° 0 mm 1 m/S 717 mmHg 46%
    20:00 +19°C° 0 mm 1 m/S 717 mmHg 51%
    21:00 +19°C° 0 mm 1 m/S 717 mmHg 55%
    22:00 +16°C° 0 mm 0 m/S 717 mmHg 58%
    23:00 +16°C° 0 mm 0 m/S 716 mmHg 61%

    übermorgen, 22 Januar, Dienstag

    Zeit Temperatur Niederschläge Wind Luftdruck Luftfeuchtigkeit
    00:00 +15°C° 0 mm 0 m/S 716 mmHg 62%
    01:00 +15°C° 0 mm 0 m/S 716 mmHg 63%
    02:00 +15°C° 0 mm 0 m/S 716 mmHg 64%
    03:00 +14°C° 0 mm 0 m/S 716 mmHg 62%
    04:00 +14°C° 0 mm 0 m/S 715 mmHg 61%
    05:00 +14°C° 0 mm 0 m/S 715 mmHg 60%
    06:00 +15°C° 0 mm 0 m/S 716 mmHg 52%
    07:00 +17°C° 0 mm 0 m/S 717 mmHg 44%
    08:00 +19°C° 0 mm 0 m/S 717 mmHg 36%
    09:00 +22°C° 0 mm 1 m/S 717 mmHg 29%
    10:00 +24°C° 0 mm 1 m/S 718 mmHg 23%
    11:00 +26°C° 0 mm 1 m/S 718 mmHg 16%
    12:00 +26°C° 0 mm 1 m/S 717 mmHg 17%
    13:00 +27°C° 0 mm 2 m/S 717 mmHg 17%
    14:00 +27°C° 0 mm 2 m/S 716 mmHg 17%
    15:00 +26°C° 0 mm 2 m/S 716 mmHg 23%
    16:00 +25°C° 0 mm 2 m/S 716 mmHg 29%
    17:00 +24°C° 0 mm 2 m/S 716 mmHg 34%
    18:00 +21°C° 0 mm 2 m/S 716 mmHg 43%
    19:00 +21°C° 0 mm 1 m/S 716 mmHg 51%
    20:00 +20°C° 0 mm 1 m/S 716 mmHg 59%
    21:00 +19°C° 0 mm 1 m/S 716 mmHg 64%
    22:00 +16°C° 0 mm 0 m/S 716 mmHg 68%
    23:00 +16°C° 0 mm 0 m/S 716 mmHg 73%

    23 Januar, Mittwoch

    Zeit Temperatur Niederschläge Wind Luftdruck Luftfeuchtigkeit
    00:00 +15°C° 0 mm 0 m/S 716 mmHg 73%
    01:00 +15°C° 0 mm 0 m/S 715 mmHg 74%
    02:00 +14°C° 0 mm 0 m/S 715 mmHg 75%
    03:00 +14°C° 0 mm 0 m/S 715 mmHg 75%
    04:00 +14°C° 0 mm 1 m/S 715 mmHg 75%
    05:00 +14°C° 0 mm 1 m/S 714 mmHg 75%
    06:00 +15°C° 0 mm 1 m/S 715 mmHg 68%
    07:00 +18°C° 0 mm 1 m/S 715 mmHg 62%
    08:00 +19°C° 0 mm 1 m/S 716 mmHg 55%
    09:00 +21°C° 0 mm 1 m/S 716 mmHg 48%
    10:00 +21°C° 0 mm 2 m/S 716 mmHg 40%
    11:00 +24°C° 0 mm 2 m/S 716 mmHg 33%
    12:00 +24°C° 0 mm 2 m/S 716 mmHg 31%
    13:00 +25°C° 0 mm 2 m/S 715 mmHg 29%
    14:00 +26°C° 0 mm 2 m/S 715 mmHg 27%
    15:00 +25°C° 0 mm 2 m/S 714 mmHg 32%
    16:00 +24°C° 0 mm 2 m/S 714 mmHg 36%
    17:00 +22°C° 0 mm 3 m/S 714 mmHg 41%
    18:00 +21°C° 0 mm 2 m/S 714 mmHg 48%
    19:00 +20°C° 0 mm 2 m/S 714 mmHg 56%
    20:00 +18°C° 0 mm 2 m/S 715 mmHg 63%
    21:00 +19°C° 0 mm 1 m/S 715 mmHg 63%
    22:00 +19°C° 0 mm 1 m/S 715 mmHg 63%
    23:00 +18°C° 0 mm 1 m/S 715 mmHg 63%

    24 Januar, Donnerstag

    Zeit Temperatur Niederschläge Wind Luftdruck Luftfeuchtigkeit
    00:00 +18°C° 0 mm 1 m/S 714 mmHg 62%
    01:00 +18°C° 0 mm 1 m/S 714 mmHg 62%
    02:00 +16°C° 0 mm 1 m/S 713 mmHg 61%
    03:00 +16°C° 0 mm 1 m/S 713 mmHg 62%
    04:00 +16°C° 0 mm 1 m/S 713 mmHg 64%
    05:00 +16°C° 0 mm 1 m/S 713 mmHg 65%
    06:00 +17°C° 0 mm 2 m/S 714 mmHg 60%
    07:00 +18°C° 0 mm 2 m/S 714 mmHg 55%
    08:00 +20°C° 0 mm 2 m/S 715 mmHg 50%
    09:00 +22°C° 0 mm 3 m/S 715 mmHg 41%
    10:00 +25°C° 0 mm 3 m/S 715 mmHg 32%
    11:00 +28°C° 0 mm 4 m/S 715 mmHg 24%
    12:00 +29°C° 0 mm 4 m/S 715 mmHg 22%
    13:00 +30°C° 0 mm 5 m/S 714 mmHg 20%
    14:00 +32°C° 0 mm 5 m/S 714 mmHg 18%
    15:00 +30°C° 0 mm 4 m/S 714 mmHg 22%
    16:00 +29°C° 0 mm 4 m/S 714 mmHg 25%
    17:00 +28°C° 0 mm 3 m/S 714 mmHg 29%
    18:00 +26°C° 0 mm 2 m/S 714 mmHg 35%
    19:00 +25°C° 0 mm 2 m/S 714 mmHg 40%
    20:00 +23°C° 0 mm 1 m/S 714 mmHg 46%
    21:00 +23°C° 0 mm 1 m/S 714 mmHg 46%
    22:00 +22°C° 0 mm 1 m/S 714 mmHg 46%
    23:00 +22°C° 0 mm 1 m/S 714 mmHg 46%

    25 Januar, Freitag

    Zeit Temperatur Niederschläge Wind Luftdruck Luftfeuchtigkeit
    00:00 +21°C° 0 mm 1 m/S 714 mmHg 45%
    01:00 +21°C° 0 mm 1 m/S 714 mmHg 44%
    02:00 +18°C° 0 mm 0 m/S 714 mmHg 42%
    03:00 +18°C° 0 mm 0 m/S 714 mmHg 42%
    04:00 +18°C° 0 mm 0 m/S 714 mmHg 41%
    05:00 +17°C° 0 mm 0 m/S 714 mmHg 40%
    06:00 +19°C° 0 mm 0 m/S 714 mmHg 40%
    07:00 +22°C° 0 mm 1 m/S 715 mmHg 39%
    08:00 +24°C° 0 mm 1 m/S 716 mmHg 39%
    09:00 +25°C° 0 mm 1 m/S 716 mmHg 40%
    10:00 +26°C° 0 mm 2 m/S 716 mmHg 41%
    11:00 +27°C° 0 mm 2 m/S 716 mmHg 42%
    12:00 +28°C° 0 mm 2 m/S 715 mmHg 41%
    13:00 +29°C° 0 mm 2 m/S 715 mmHg 40%
    14:00 +30°C° 0 mm 2 m/S 714 mmHg 40%
    15:00 +29°C° 0 mm 2 m/S 714 mmHg 46%
    16:00 +28°C° 0 mm 2 m/S 714 mmHg 52%
    17:00 +27°C° 0 mm 2 m/S 714 mmHg 59%
    18:00 +26°C° 0 mm 2 m/S 714 mmHg 68%
    19:00 +25°C° 0 mm 2 m/S 714 mmHg 77%
    20:00 +23°C° 0 mm 2 m/S 714 mmHg 87%
    21:00 +23°C° 0 mm 1 m/S 714 mmHg 89%
    22:00 +23°C° 0 mm 1 m/S 714 mmHg 92%
    23:00 +22°C° 0 mm 1 m/S 713 mmHg 95%
    Mehr zeigen